Regional Weather Roundup
Issued by NWS

Home | Current Version | Previous Version | Graphics & Text | Print | Product List | Glossary Off
Versions: 1 2 3 4 5 6 7 8 9 10 11 12 13 14 15 16 17 18 19 20 21 22 23 24 25 26 27 28 29 30 31 32 33 34 35 36 37 38 39 40 41 42 43 44 45 46 47 48 49 50

000
ASUS43 KDMX 221407
RWRIA

WEATHER ROUNDUP FOR IOWA
NATIONAL WEATHER SERVICE DES MOINES IA
800 AM CST SAT NOV 22 2014

NOTE: "FAIR" INDICATES FEW OR NO CLOUDS BELOW 12,000 FEET WITH NO
SIGNIFICANT WEATHER AND/OR OBSTRUCTIONS TO VISIBILITY.

* - THESE STATIONS ARE NOT NWS STATIONS...THUS NOT UNDER NWS
QUALITY CONTROL.  THEY ALSO DO NOT REPORT WEATHER SUCH
AS PRECIPITATION OR FOG.

IAZ001>003-012>014-020>022-031>034-043>046-221500-
   NORTHWEST IOWA

CITY           SKY/WX    TMP DP  RH WIND       PRES   REMARKS
CARROLL *      CLOUDY    37  37 100 SW9       29.84F FOG     WCI  31
CHEROKEE *     FOG       36  36 100 SW13G18   29.81F VSB 1   WCI  27
DENISON *      FOG       37  37 100 SW13      29.83F VSB 1/2 WCI  29
LE MARS *      FOG       36  36 100 S12       29.80R VSB 1/2 WCI  27
ORANGE CITY *  FOG       36  34  93 SW10      29.78S VSB 1/4 WCI  28
SHELDON *      FOG       34  34 100 SW12      29.77S VSB 0   WCI  25
SIOUX CITY     CLOUDY    38  35  89 S9        29.81F FOG     WCI  31
SPENCER        FOG       35  34  96 SW13      29.79F VSB 1/2 WCI  26
STORM LAKE *   FOG       36  36 100 SW16      29.81F VSB 0   WCI  26
$$

IAZ055>058-069>071-079>083-090>094-221500-
   SOUTHWEST IOWA

CITY           SKY/WX    TMP DP  RH WIND       PRES   REMARKS
ATLANTIC *     CLOUDY    37  37 100 S8        29.86F WCI  31
AUDUBON *      MOCLDY    37  34  87 S10       29.86F FOG     WCI  30
CLARINDA *     CLOUDY    41  41 100 S7        29.92F FOG
COUNCIL BLFS * FOG       37  37 100 SW9G15    29.84F VSB 1/4 WCI  31
CRESTON *      CLOUDY    41  41 100 SW9       29.90F FOG
HARLAN  *      CLOUDY    37  37 100 S6        29.89F FOG     WCI  33
LAMONI         CLOUDY    43  42  97 SW14      29.93S
RED OAK *      CLOUDY    39  39 100 S5        29.88F FOG
SHENANDOAH *   CLOUDY    41  41 100 SW9       29.91F FOG
$$

IAZ047>049-059>061-072>074-084-221500-
   CENTRAL IOWA

CITY           SKY/WX    TMP DP  RH WIND       PRES   REMARKS
AMES           CLOUDY    38  36  92 S6        29.88S FOG     WCI  33
ANKENY *       CLOUDY    41  41 100 SW8       29.90S FOG
CHARITON *     CLOUDY    43  43 100 SW12G17   29.92S FOG
DES MOINES     CLOUDY    41  39  93 SW9       29.90S FOG
GRINNELL*      FOG       39  37  93 S8        29.90S VSB<1/4 WCI  34
KNOXVILLE *    CLOUDY    45  43  93 SW9       29.90S FOG
MARSHALLTOWN   FOG       37  36  96 S8        29.88S VSB 1   WCI  31
PELLA *        FOG       43  43 100 SW7       29.92S VSB 1
PERRY *        CLOUDY    39  39 100 S9        29.87F FOG     WCI  33
$$

IAZ004>006-015-016-023>025-035-036-221500-
   NORTH CENTRAL IOWA

CITY           SKY/WX    TMP DP  RH WIND       PRES   REMARKS
ALGONA *       FOG       34  34 100 S14       29.81F VSB 0   WCI  24
CLARION *      FOG       34  34 100 S10       29.83F VSB 0   WCI  26
ESTHERVILLE    FOG       34  34 100 SW15      29.78F VSB 1/4 WCI  24
FORT DODGE *   CLOUDY    36  34  93 S12       29.84F VSB 1/4 WCI  27
MASON CITY     FOG       34  34 100 S9        29.84F VSB 1/4 WCI  27
FOREST CITY *  FOG       34  34 100 S8        29.81F VSB 1/4 WCI  27
IOWA FALLS *   SNOW      36  34  93 S9        29.86F VSB 1/4 WCI  29
$$

IAZ007>011-017>019-026>030-037>042-050>054-066-221500-
   NORTHEAST IOWA

CITY           SKY/WX    TMP DP  RH WIND       PRES   REMARKS
CEDAR RAPIDS   FOG       36  36 100 S9        29.91F VSB 1/16WCI  29
CHARLES CITY * FOG       34  34 100 S9        29.85F VSB 1/2 WCI  26
CLINTON *      CLOUDY    39  37  93 S10       29.99F VSB 1/4 WCI  32
DECORAH *      FOG       34  34 100 S6        29.85F VSB 1/2 WCI  29
DUBUQUE        FOG       33  33 100 S9        29.92F VSB<1/4 WCI  25
MONTICELLO *   FOG       36  36 100 SE6       29.93S VSB 0   WCI  31
OELWEIN *      FOG       34  34 100 S12       29.88F VSB 0   WCI  25
WATERLOO       FOG       34  34 100 S10       29.88F VSB 3/4 WCI  26
$$

IAZ064-065-067-068-078-221500-
   EAST CENTRAL IOWA

CITY           SKY/WX    TMP DP  RH WIND       PRES   REMARKS
DAVENPORT      CLOUDY    41  39  93 S12       29.96F FOG
IOWA CITY      FOG       38  38 100 CALM      29.95F VSB 1/4
MT. PLEASANT * CLOUDY    45  43  93 S10       29.96S FOG
MUSCATINE *    CLOUDY    41  41 100 S7        29.96F FOG
QUAD CITIES    CLOUDY    43  40  89 S7        29.96F FOG
$$

IAZ062-063-075>077-085>089-095>099-221500-
   SOUTHEAST IOWA

CITY           SKY/WX    TMP DP  RH WIND       PRES   REMARKS
BURLINGTON     CLOUDY    46  43  89 S9        29.96F
FAIRFIELD *    CLOUDY    43  41  93 S7        29.94S
FORT MADISON * CLOUDY    48  46  93 S12       29.97F
KEOKUK *       CLOUDY    48  45  87 S14       29.96F
OSKALOOSA *    DRZL/FOG  39  39 100 S5        29.92F VSB<1/4
CENTERVILLE *  CLOUDY    48  48 100 S13       29.94S
OTTUMWA        FOG       43  42  97 S9        29.92S VSB 1/4
WASHINGTON *   FOG       43  43 100 S14       29.94S VSB 1/2
$$

ABBREVIATIONS USED IN REMARKS
   TC - TEMPERATURES IN CELSIUS
  WCI - WIND CHILL INDEX
   HX - HEAT INDEX
  VSB - VISIBILITY
$$



USA.gov is the U.S. government's official web portal to all federal, state and local government web resources and services.